EW1033 Weather Reports


Display with metric or nautical units.
time (UTC)temp
F
wind
direction
speed
MPH
gust
MPH
rain 1hr
in
rain 24hr
in
rain mn
in
humidity
%
barometer
mb
20260903063004 82 0.0 0.0 0.00 0.00 0.00 60 1009.4
20260903061505 82 0.0 0.0 0.00 0.00 0.00 59 1009.6
20260903060004 83 0.0 0.0 0.00 0.00 0.00 58 1009.4
20260903054607 83 0.0 0.0 0.00 0.00 0.00 56 1009.5
20260903053101 84 0.0 0.0 0.00 0.00 0.00 54 1009.7
20260903051600 84 0.0 0.0 0.00 0.00 0.00 52 1009.7
20260903050059 84 0.0 0.0 0.00 0.00 0.00 51 1009.6
20260903044559 84 0.0 0.0 0.00 0.00 0.00 52 1009.5
20260903043058 84 0.0 0.0 0.00 0.00 0.00 53 1009.3
20260903041558 84 0.0 0.0 0.00 0.00 0.00 52 1009.3
20260903040058 85 0.0 0.0 0.00 0.00 0.00 51 1009.2
20260903034556 85 0.0 0.0 0.00 0.00 0.00 50 1009.2
20260903033100 85 0.0 0.0 0.00 0.00 0.00 50 1009.0
20260903031556 85 0.0 0.0 0.00 0.00 0.00 49 1008.9
20260903030114 85 0.0 0.0 0.00 0.00 0.00 49 1008.6
20260903024554 85 0.0 0.0 0.00 0.00 0.00 50 1008.5
20260903023053 85 0.0 0.0 0.00 0.00 0.00 50 1008.3
20260903021553 86 0.0 0.0 0.00 0.00 0.00 48 1008.2
20260903020104 87 0.0 0.0 0.00 0.00 0.00 48 1008.2
20260903014551 87 0.0 0.0 0.00 0.00 0.00 47 1008.2
20260903013049 88 0.0 0.0 0.00 0.00 0.00 46 1008.0
20260903011548 88 0.0 0.0 0.00 0.00 0.00 45 1007.9
20260903010048 89 0.0 0.0 0.00 0.00 0.00 44 1007.7
20260903004545 91 0.0 0.0 0.00 0.00 0.00 42 1007.6
20260903003045 92 0.0 0.0 0.00 0.00 0.00 42 1007.7
20260903001559 93 0.0 0.0 0.00 0.00 0.00 41 1007.9
20260903000048 92 0.0 0.0 0.00 0.00 0.00 40 1007.8
20260902234546 93 0.0 0.0 0.00 0.00 0.00 40 1007.8
20260902233043 93 0.0 0.0 0.00 0.00 0.00 41 1007.8
20260902231540 94 0.0 0.0 0.00 0.00 0.00 40 1007.9
20260902230037 93 0.0 0.0 0.00 0.00 0.00 42 1008.1
20260902224534 92 0.0 0.0 0.00 0.00 0.00 42 1008.3
20260902223034 93 0.0 0.0 0.00 0.00 0.00 40 1008.3
20260902221550 90 0.0 0.0 0.00 0.00 0.00 45 1008.4
20260902220035 91 0.0 0.0 0.00 0.00 0.00 41 1008.7
20260902214532 92 0.0 0.0 0.00 0.00 0.00 40 1008.8
20260902213033 92 0.0 0.0 0.00 0.00 0.00 39 1008.6
20260902211529 93 0.0 0.0 0.00 0.00 0.00 36 1008.8
20260902210030 94 0.0 0.0 0.00 0.00 0.00 38 1009.0
20260902204526 94 0.0 0.0 0.00 0.00 0.00 38 1009.0
20260902203023 95 0.0 0.0 0.00 0.00 0.00 37 1009.1
20260902201521 95 0.0 0.0 0.00 0.00 0.00 37 1009.2
20260902200019 95 0.0 0.0 0.00 0.00 0.00 40 1009.3
20260902194525 96 0.0 0.0 0.00 0.00 0.00 38 1009.8
20260902193012 95 0.0 0.0 0.00 0.00 0.00 40 1010.0
20260902191515 93 0.0 0.0 0.00 0.00 0.00 41 1010.3
20260902190006 94 0.0 0.0 0.00 0.00 0.00 42 1010.8
20260902184502 93 0.0 0.0 0.00 0.00 0.00 44 1010.8
20260902183002 92 0.0 0.0 0.00 0.00 0.00 44 1010.9
20260902181607 92 0.0 0.0 0.00 0.00 0.00 46 1011.2
20260902180058 90 0.0 0.0 0.00 0.00 0.00 48 1011.4
20260902174554 90 0.0 0.0 0.00 0.00 0.00 48 1011.5
20260902173056 89 0.0 0.0 0.00 0.00 0.00 49 1011.6
20260902171600 89 0.0 0.0 0.00 0.00 0.00 49 1011.7
20260902170048 88 0.0 0.0 0.00 0.00 0.00 50 1011.8
20260902164557 88 0.0 0.0 0.00 0.00 0.00 51 1011.8
20260902163041 88 0.0 0.0 0.00 0.00 0.00 52 1012.0
20260902161539 87 0.0 0.0 0.00 0.00 0.00 53 1012.0
20260902160045 85 0.0 0.0 0.00 0.00 0.00 55 1012.1
20260902154546 85 0.0 0.0 0.00 0.00 0.00 56 1012.0
20260902153029 84 0.0 0.0 0.00 0.00 0.00 57 1012.1
20260902151532 83 0.0 0.0 0.00 0.00 0.00 59 1012.1
20260902150023 82 0.0 0.0 0.00 0.00 0.00 60 1012.0
20260902144518 81 0.0 0.0 0.00 0.00 0.00 64 1012.0
20260902143015 79 0.0 0.0 0.00 0.00 0.00 70 1012.0
20260902141512 78 0.0 0.0 0.00 0.00 0.00 71 1012.0
20260902140013 76 0.0 0.0 0.00 0.00 0.00 74 1011.8
20260902134505 75 0.0 0.0 0.00 0.00 0.00 79 1011.7
20260902133011 73 0.0 0.0 0.00 0.00 0.00 82 1011.4
20260902131612 72 0.0 0.0 0.00 0.00 0.00 83 1011.4
20260902124556 71 0.0 0.0 0.00 0.01 0.00 83 1011.4
20260902123053 72 0.0 0.0 0.00 0.01 0.00 82 1011.1
20260902121553 73 0.0 0.0 0.00 0.01 0.00 81 1011.1
20260902120052 72 0.0 0.0 0.00 0.01 0.00 82 1011.1
20260902114609 73 0.0 0.0 0.00 0.01 0.00 82 1011.1
20260902113049 73 0.0 0.0 0.00 0.01 0.00 81 1011.1
20260902111549 73 0.0 0.0 0.00 0.01 0.00 81 1011.1
20260902110059 73 0.0 0.0 0.00 0.01 0.00 79 1011.2
20260902104546 73 0.0 0.0 0.00 0.01 0.00 78 1011.3
20260902103053 73 0.0 0.0 0.00 0.01 0.00 79 1011.3
20260902101548 74 0.0 0.0 0.00 0.01 0.00 78 1011.3
20260902100044 74 0.0 0.0 0.00 0.01 0.00 78 1011.2
20260902094540 75 0.0 0.0 0.00 0.01 0.00 75 1011.2
20260902093042 75 0.0 0.0 0.00 0.01 0.00 73 1011.2
20260902091540 75 0.0 0.0 0.00 0.01 0.00 75 1011.1
20260902090037 74 0.0 0.0 0.00 0.01 0.00 77 1011.0
20260902084535 74 0.0 0.0 0.00 0.01 0.00 79 1011.0
20260902083038 75 0.0 0.0 0.00 0.01 0.00 76 1010.9
20260902081541 74 0.0 0.0 0.00 0.01 0.00 78 1010.8
20260902080045 75 0.0 0.0 0.00 0.01 0.00 78 1011.0
20260902074529 75 0.0 0.0 0.00 0.01 0.00 75 1010.9
20260902073029 77 0.0 0.0 0.00 0.01 0.00 72 1010.9
20260902071524 77 0.0 0.0 0.00 0.01 0.00 69 1010.8
20260902070021 78 0.0 0.0 0.00 0.01 0.01 66 1010.8
20260902064521 77 0.0 0.0 0.00 0.01 0.01 70 1010.7